Regional Weather Roundup
Issued by NWS

Home | Current Version | Previous Version | Graphics & Text | Print | Product List | Glossary On
Versions: 1 2 3 4 5 6 7 8 9 10 11 12 13 14 15 16 17 18 19 20 21 22 23 24 25 26 27
000
ASUS45 KSLC 251310
RWRUT

UTAH REGIONAL WEATHER ROUNDUP
NATIONAL WEATHER SERVICE SALT LAKE CITY UT
700 AM MDT SUN SEP 25 2016

UTZ001>011-023>025-251400-

NORTHERN UTAH

CITY           SKY/WX    TMP DP  RH WIND       PRES   REMARKS
BRIGHAM CITY     N/A     42  38  88 NW5       30.46R
HILL AFB       CLEAR     44  37  78 SE16      30.44R
LOGAN          CLEAR     38  37  97 CALM      30.48R
OGDEN          CLEAR     44  38  79 S6        30.43R
PROVO AIRPORT  CLEAR     42  37  82 E5        30.46R
SALT LAKE CITY CLEAR     46  41  82 SE7       30.43R
VERNAL         CLEAR     39  34  82 W5        30.45R
WENDOVER       CLEAR     45  37  76 N3        30.44R
HEBER CITY     CLEAR     32  30  93 CALM      30.48R
WEST JORDAN    CLEAR     41  39  91 S3        30.45R

$$

UTZ012>022-026-027-251400-

SOUTHERN/CENTRAL UTAH

CITY           SKY/WX    TMP DP  RH WIND       PRES   REMARKS
BLANDING       CLEAR     49  32  51 N22       30.41S
BRYCE CANYON   CLEAR     31  28  89 NW3       30.46S
CEDAR CITY     CLEAR     38  32  79 CALM      30.40R
DELTA          CLEAR     41  37  87 NE6       30.43R
MILFORD        CLEAR     43  39  86 N10       30.41R
MOAB/CYNLANDS  CLEAR     50  36  58 N7        30.38R
PRICE          CLEAR     41  33  73 CALM      30.44R
ST GEORGE      SUNNY     61  32  33 NE3       30.31R

$$

REGIONAL REPORTS     COLORADO/ARIZONA

CITY           SKY/WX    TMP DP  RH WIND       PRES   REMARKS
CRAIG, CO      FOG       35  34  96 CALM      30.50R VSB 1/4
GRAND JUNCTION CLEAR     42  37  82 CALM      30.42R
RIFLE          CLEAR     40  39  97 S3        30.47R
MONTROSE       CLEAR     39  35  86 SE7       30.47R WCI  34
CORTEZ         CLEAR     33  31  92 N5        30.36R WCI  29
PAGE, AZ       CLEAR     57  35  43 CALM      30.33R
GRAND CANYON   CLEAR     48  33  56 NE15      30.38R
KINGMAN        CLEAR     53  32  44 E9        30.23R
FLAGSTAFF      CLEAR     45  34  65 NE8G21    30.33R

$$

REGIONAL REPORTS    NEVADA/IDAHO/WYOMING

CITY           SKY/WX    TMP DP  RH WIND       PRES   REMARKS
LAS VEGAS, NV  CLEAR     69  33  26 E7        30.23R
ELY            PTCLDY    31  28  89 S9        30.48R WCI  23
ELKO           CLEAR     37  33  85 E5        30.47S WCI  33
POCATELLO, ID  CLOUDY    39  35  86 CALM      30.47R
BURLEY         CLEAR     38  36  92 CALM      30.45R
EVANSTON, WY   CLOUDY    35  27  72 S7        30.49S WCI  29
ROCK SPRINGS   CLEAR     35  33  92 S5        30.48R WCI  31

$$




USA.gov is the U.S. government's official web portal to all federal, state and local government web resources and services.